KE2HEH Weather Reports


Display with metric or nautical units.
time (UTC)temp
F
wind
direction
speed
MPH
gust
MPH
rain 1hr
in
rain 24hr
in
rain mn
in
humidity
%
barometer
mb
20260506132012 54 229 16.0 23.0 0.00 0.00 0.00 96 1011.4
20260506131509 54 201 13.0 21.0 0.00 0.00 0.00 96 1011.1
20260506131006 54 187 16.0 24.0 0.00 0.00 0.00 96 1011.1
20260506130502 54 156 13.0 23.0 0.00 0.00 0.00 96 1010.9
20260506125959 53 231 15.0 25.0 0.00 0.00 0.00 96 1011.0
20260506125458 53 222 16.0 25.0 0.00 0.00 0.00 96 1010.9
20260506124955 53 191 17.0 23.0 0.00 0.00 0.00 96 1010.8
20260506124453 53 230 14.0 25.0 0.00 0.00 0.00 96 1010.8
20260506123951 53 178 15.0 22.0 0.00 0.00 0.00 96 1011.0
20260506123449 53 199 19.0 24.0 0.00 0.00 0.00 96 1011.0
20260506122946 53 207 15.0 24.0 0.00 0.00 0.00 96 1011.0
20260506122443 53 154 15.0 22.0 0.00 0.00 0.00 96 1011.2
20260506121941 53 227 13.0 24.0 0.00 0.00 0.00 96 1011.2
20260506121438 53 197 14.0 24.0 0.00 0.00 0.00 96 1011.1
20260506120934 53 208 16.0 25.0 0.00 0.00 0.00 97 1011.2
20260506120432 53 213 17.0 27.0 0.00 0.00 0.00 96 1011.3
20260506115929 53 193 16.0 24.0 0.00 0.00 0.00 97 1011.3
20260506115427 53 199 18.0 26.0 0.00 0.00 0.00 97 1011.4
20260506114925 53 182 18.0 26.0 0.00 0.00 0.00 97 1011.3
20260506114423 53 173 22.0 29.0 0.00 0.00 0.00 97 1011.5
20260506113921 53 199 15.0 26.0 0.00 0.00 0.00 97 1011.1
20260506113419 53 199 20.0 27.0 0.00 0.00 0.00 97 1011.4
20260506112915 53 221 19.0 25.0 0.00 0.00 0.00 97 1011.2
20260506112413 53 219 16.0 27.0 0.00 0.00 0.00 97 1010.9
20260506111910 53 185 16.0 22.0 0.00 0.00 0.00 97 1011.0
20260506111408 53 208 15.0 23.0 0.00 0.00 0.00 97 1011.1
20260506110905 53 192 13.0 22.0 0.00 0.00 0.00 97 1011.1
20260506110402 53 189 15.0 26.0 0.00 0.00 0.00 97 1011.2
20260506105858 53 175 14.0 22.0 0.00 0.00 0.00 97 1011.3
20260506105355 53 165 11.0 24.0 0.00 0.00 0.00 96 1011.2
20260506104852 53 200 19.0 23.0 0.00 0.00 0.00 96 1011.3
20260506104350 53 186 14.0 25.0 0.00 0.00 0.00 96 1011.2
20260506103847 53 201 18.0 25.0 0.00 0.00 0.00 96 1010.9
20260506103345 53 197 14.0 23.0 0.00 0.00 0.00 96 1010.9
20260506102842 53 218 15.0 29.0 0.00 0.00 0.00 96 1011.0
20260506102340 53 238 14.0 25.0 0.00 0.00 0.00 96 1011.0
20260506101837 53 202 17.0 22.0 0.00 0.00 0.00 96 1011.0
20260506101333 53 209 14.0 23.0 0.00 0.00 0.00 96 1011.0
20260506100831 53 190 18.0 23.0 0.00 0.00 0.00 96 1010.9
20260506100329 53 186 16.0 24.0 0.00 0.00 0.00 96 1010.9
20260506095827 53 162 16.0 23.0 0.00 0.00 0.00 96 1010.9
20260506095324 53 220 14.0 24.0 0.00 0.00 0.00 96 1010.8
20260506094821 53 206 16.0 22.0 0.00 0.00 0.00 96 1010.8
20260506094320 53 204 18.0 23.0 0.00 0.00 0.00 96 1010.8
20260506093817 53 191 22.0 30.0 0.00 0.00 0.00 96 1011.0
20260506093314 53 203 16.0 22.0 0.00 0.00 0.00 96 1011.0
20260506092812 53 206 18.0 24.0 0.00 0.00 0.00 96 1011.0
20260506092309 53 223 17.0 25.0 0.00 0.00 0.00 96 1010.9
20260506091807 53 195 16.0 26.0 0.00 0.00 0.00 96 1010.9
20260506091304 53 208 18.0 25.0 0.00 0.00 0.00 96 1010.9
20260506090802 53 193 15.0 23.0 0.00 0.00 0.00 95 1011.0
20260506090259 54 206 18.0 23.0 0.00 0.00 0.00 95 1011.1
20260506085755 54 203 18.0 26.0 0.00 0.00 0.00 95 1011.5
20260506085252 54 205 13.0 21.0 0.00 0.00 0.00 95 1011.2
20260506084748 54 143 18.0 26.0 0.00 0.00 0.00 95 1011.0
20260506084245 54 186 16.0 23.0 0.00 0.00 0.00 95 1011.1
20260506083742 54 178 14.0 23.0 0.00 0.00 0.00 95 1011.2
20260506083239 54 176 15.0 25.0 0.00 0.00 0.00 95 1011.2
20260506082737 54 200 19.0 29.0 0.00 0.00 0.00 95 1011.3
20260506082232 54 191 16.0 26.0 0.00 0.00 0.00 95 1011.1
20260506081730 54 190 17.0 25.0 0.00 0.00 0.00 95 1011.3
20260506081227 54 211 18.0 24.0 0.00 0.00 0.00 95 1011.3
20260506080725 54 202 16.0 24.0 0.00 0.00 0.00 95 1011.4
20260506080221 54 178 19.0 22.0 0.00 0.00 0.00 95 1011.3
20260506073206 54 190 19.0 23.0 0.00 0.00 0.00 94 1011.4
20260506072702 54 199 19.0 24.0 0.00 0.00 0.00 94 1011.7
20260506072200 54 200 20.0 29.0 0.00 0.00 0.00 94 1011.5
20260506071657 54 202 13.0 25.0 0.00 0.00 0.00 94 1011.6
20260506071155 54 210 18.0 30.0 0.00 0.00 0.00 94 1011.6
20260506070651 54 210 18.0 24.0 0.00 0.00 0.00 94 1011.7
20260506070148 54 191 18.0 27.0 0.00 0.00 0.00 94 1011.6
20260506062126 54 223 15.0 26.0 0.00 0.00 0.00 93 1011.5
20260506061621 54 210 22.0 26.0 0.00 0.00 0.00 93 1011.4
20260506061120 54 200 22.0 26.0 0.00 0.00 0.00 93 1011.7
20260506060618 54 191 22.0 29.0 0.00 0.00 0.00 93 1011.6
20260506060114 54 232 19.0 30.0 0.00 0.00 0.00 93 1011.6
20260506051046 55 202 25.0 30.0 0.00 0.00 0.00 92 1011.9
20260506050544 55 204 26.0 31.0 0.00 0.00 0.00 92 1011.7
20260506045034 55 165 24.0 32.0 0.00 0.00 0.00 92 1011.9
20260506044532 55 157 25.0 33.0 0.00 0.00 0.00 92 1011.9
20260506044029 55 230 25.0 30.0 0.00 0.00 0.00 92 1012.0
20260506043526 55 206 27.0 31.0 0.00 0.00 0.00 92 1012.2
20260506043025 55 229 24.0 30.0 0.00 0.00 0.00 91 1011.9
20260506042523 55 221 24.0 31.0 0.00 0.00 0.00 91 1011.9
20260506042021 55 182 24.0 32.0 0.00 0.00 0.00 91 1011.8
20260506041519 55 182 23.0 33.0 0.00 0.00 0.00 91 1012.0
20260506041016 55 198 23.0 31.0 0.00 0.00 0.00 91 1012.0
20260506040514 55 189 24.0 32.0 0.00 0.00 0.00 91 1012.1
20260506040009 55 184 26.0 35.0 0.00 0.00 0.00 91 1012.0
20260506035506 55 219 30.0 33.0 0.00 0.00 0.00 90 1011.7
20260506035003 55 196 24.0 33.0 0.00 0.00 0.00 90 1011.8
20260506034501 55 184 27.0 33.0 0.00 0.00 0.00 90 1012.0
20260506033957 56 198 26.0 34.0 0.00 0.00 0.00 90 1011.8
20260506033455 56 209 28.0 35.0 0.00 0.00 0.00 90 1011.8
20260506032951 56 219 28.0 34.0 0.00 0.00 0.00 90 1011.9
20260506032449 56 196 29.0 36.0 0.00 0.00 0.00 90 1011.6
20260506031945 56 208 32.0 34.0 0.00 0.00 0.00 90 1011.8
20260506031443 56 224 25.0 34.0 0.00 0.00 0.00 90 1011.8
20260506030940 56 205 24.0 33.0 0.00 0.00 0.00 90 1011.8
20260506030438 56 178 25.0 33.0 0.00 0.00 0.00 90 1011.9
20260506025934 56 193 30.0 34.0 0.00 0.00 0.00 90 1011.9
20260506025431 56 204 24.0 32.0 0.00 0.00 0.00 90 1011.9
20260506024928 56 203 30.0 33.0 0.00 0.00 0.00 90 1012.1
20260506024425 56 196 27.0 33.0 0.00 0.00 0.00 90 1011.9
20260506023921 56 227 25.0 32.0 0.00 0.00 0.00 90 1011.8
20260506023418 56 199 29.0 31.0 0.00 0.00 0.00 89 1011.7
20260506022914 56 190 27.0 32.0 0.00 0.00 0.00 89 1011.7
20260506022412 57 196 30.0 36.0 0.00 0.00 0.00 89 1011.8
20260506021910 57 185 30.0 36.0 0.00 0.00 0.00 89 1011.7
20260506021407 57 210 30.0 33.0 0.00 0.00 0.00 89 1011.9
20260506020904 57 201 23.0 31.0 0.00 0.00 0.00 89 1011.9
20260506020402 57 207 25.0 33.0 0.00 0.00 0.00 89 1011.8
20260506015859 56 191 31.0 34.0 0.00 0.00 0.00 89 1011.8
20260506015356 56 231 29.0 35.0 0.00 0.00 0.00 89 1011.6
20260506014853 56 193 25.0 35.0 0.00 0.00 0.00 88 1011.8
20260506014350 56 193 23.0 32.0 0.00 0.00 0.00 88 1011.5
20260506013846 56 205 25.0 33.0 0.00 0.00 0.00 88 1011.6
20260506013344 56 194 22.0 32.0 0.00 0.00 0.00 88 1011.6
20260506012840 56 203 23.0 30.0 0.00 0.00 0.00 88 1011.7
20260506012337 56 242 23.0 32.0 0.00 0.00 0.00 88 1011.8
20260506011835 56 233 20.0 32.0 0.00 0.00 0.00 88 1011.6
20260506011331 57 212 22.0 32.0 0.00 0.00 0.00 88 1011.6
20260506010829 57 200 25.0 31.0 0.00 0.00 0.00 88 1011.4
20260506010326 56 205 17.0 30.0 0.00 0.00 0.00 88 1011.6
20260506005823 56 171 20.0 30.0 0.00 0.00 0.00 87 1011.7
20260506005320 57 194 26.0 32.0 0.00 0.00 0.00 87 1011.3
20260506004816 57 205 19.0 27.0 0.00 0.00 0.00 87 1011.5
20260506004314 57 200 28.0 35.0 0.00 0.00 0.00 87 1011.5
20260506003809 57 189 19.0 32.0 0.00 0.00 0.00 87 1011.2
20260506003306 57 177 24.0 33.0 0.00 0.00 0.00 87 1011.2
20260506002802 57 202 24.0 32.0 0.00 0.00 0.00 87 1011.1
20260506002259 57 207 28.0 35.0 0.00 0.00 0.00 87 1011.1
20260506001754 57 196 27.0 33.0 0.00 0.00 0.00 86 1011.2
20260506001252 58 210 29.0 35.0 0.00 0.00 0.00 85 1011.1
20260506000749 58 210 29.0 35.0 0.00 0.00 0.00 85 1011.1
20260506000247 58 200 29.0 35.0 0.00 0.00 0.00 85 1011.0
20260505235743 58 188 33.0 38.0 0.00 0.00 0.00 85 1010.9
20260505235241 58 219 32.0 35.0 0.00 0.00 0.00 85 1010.8
20260505234738 58 198 32.0 41.0 0.00 0.00 0.00 85 1010.3
20260505234235 58 188 28.0 38.0 0.00 0.00 0.00 85 1010.5
20260505233731 58 199 32.0 38.0 0.00 0.00 0.00 85 1010.2
20260505233230 58 188 30.0 34.0 0.00 0.00 0.00 85 1010.4
20260505232726 58 196 28.0 35.0 0.00 0.00 0.00 85 1010.1
20260505232224 58 195 29.0 36.0 0.00 0.00 0.00 85 1010.2
20260505231721 58 189 32.0 39.0 0.00 0.00 0.00 85 1010.1
20260505231220 58 207 30.0 38.0 0.00 0.00 0.00 85 1010.0
20260505230717 58 196 29.0 35.0 0.00 0.00 0.00 85 1010.0
20260505230214 58 205 31.0 35.0 0.00 0.00 0.00 85 1010.0
20260505225710 58 176 29.0 39.0 0.00 0.00 0.00 85 1010.1
20260505225207 58 196 29.0 36.0 0.00 0.00 0.00 85 1009.9
20260505224702 58 202 27.0 35.0 0.00 0.00 0.00 85 1010.0
20260505224201 58 210 29.0 40.0 0.00 0.00 0.00 85 1009.6
20260505223658 58 174 27.0 36.0 0.00 0.00 0.00 85 1009.8
20260505223153 58 188 21.0 34.0 0.00 0.00 0.00 85 1009.7
20260505222650 58 220 20.0 32.0 0.00 0.00 0.00 85 1009.8
20260505222146 58 192 25.0 32.0 0.00 0.00 0.00 85 1009.7
20260505221643 58 179 23.0 29.0 0.00 0.00 0.00 85 1009.7
20260505221140 58 243 16.0 25.0 0.00 0.00 0.00 84 1009.6
20260505220637 58 177 22.0 32.0 0.00 0.00 0.00 84 1009.7
20260505220135 58 176 17.0 26.0 0.00 0.00 0.00 84 1009.7
20260505215632 58 205 27.0 33.0 0.00 0.00 0.00 84 1009.5
20260505215130 58 191 21.0 27.0 0.00 0.00 0.00 84 1009.4
20260505214628 58 162 23.0 31.0 0.00 0.00 0.00 84 1009.6
20260505214125 58 184 22.0 29.0 0.00 0.00 0.00 84 1009.5
20260505213622 58 173 18.0 32.0 0.00 0.00 0.00 84 1009.7
20260505213119 58 200 22.0 35.0 0.00 0.00 0.00 83 1009.4
20260505212615 59 195 16.0 26.0 0.00 0.00 0.00 83 1009.3
20260505212113 59 221 23.0 29.0 0.00 0.00 0.00 84 1009.3
20260505211609 59 199 19.0 27.0 0.00 0.00 0.00 84 1009.2
20260505211107 58 197 16.0 29.0 0.00 0.00 0.00 84 1009.2
20260505210603 58 207 21.0 31.0 0.00 0.00 0.00 84 1009.2
20260505210100 58 228 21.0 32.0 0.00 0.00 0.00 84 1009.3
20260505205558 58 213 20.0 35.0 0.00 0.00 0.00 85 1009.5
20260505205055 58 156 21.0 33.0 0.00 0.00 0.00 85 1009.4
20260505204552 58 207 20.0 27.0 0.00 0.00 0.00 85 1009.2
20260505204050 58 190 19.0 33.0 0.00 0.00 0.00 85 1009.5
20260505203546 58 214 22.0 30.0 0.00 0.00 0.00 85 1009.4
20260505203043 58 202 18.0 23.0 0.00 0.00 0.00 85 1009.3
20260505202539 58 234 17.0 26.0 0.00 0.00 0.00 85 1009.2
20260505202035 58 199 18.0 27.0 0.00 0.00 0.00 85 1009.6
20260505201532 58 186 15.0 24.0 0.00 0.00 0.00 85 1009.4
20260505201030 58 162 17.0 23.0 0.00 0.00 0.00 85 1009.3
20260505200528 58 216 17.0 26.0 0.00 0.00 0.00 85 1009.7
20260505200025 58 163 20.0 26.0 0.00 0.00 0.00 85 1009.4
20260505195520 58 212 17.0 24.0 0.00 0.00 0.00 86 1009.5
20260505195018 58 213 15.0 22.0 0.00 0.00 0.00 86 1009.5
20260505194515 58 181 19.0 25.0 0.00 0.00 0.00 86 1009.9
20260505194010 58 180 19.0 24.0 0.00 0.00 0.00 86 1009.8
20260505193508 58 229 21.0 25.0 0.00 0.00 0.00 86 1009.8
20260505193005 58 209 19.0 23.0 0.00 0.00 0.00 86 1009.9
20260505192503 58 162 17.0 25.0 0.00 0.00 0.00 85 1009.9
20260505192001 58 202 15.0 21.0 0.00 0.00 0.00 85 1010.2
20260505191459 58 178 9.0 19.0 0.00 0.00 0.00 86 1010.3
20260505190956 58 184 16.0 19.0 0.00 0.00 0.00 86 1010.6
20260505190450 58 204 13.0 22.0 0.00 0.00 0.00 86 1010.4
20260505185946 58 183 17.0 25.0 0.00 0.00 0.00 86 1010.6
20260505185444 58 208 18.0 21.0 0.00 0.00 0.00 86 1010.5
20260505184940 58 184 14.0 26.0 0.00 0.00 0.00 86 1010.7
20260505184437 58 214 14.0 22.0 0.00 0.00 0.00 86 1010.8
20260505183933 58 206 17.0 24.0 0.00 0.00 0.00 86 1010.8
20260505183430 58 197 15.0 21.0 0.00 0.00 0.00 86 1010.8
20260505182927 58 211 17.0 23.0 0.00 0.00 0.00 86 1011.1
20260505182424 58 181 16.0 22.0 0.00 0.00 0.00 86 1010.9
20260505181920 58 177 15.0 22.0 0.00 0.00 0.00 86 1010.9
20260505181418 58 211 18.0 22.0 0.00 0.00 0.00 86 1011.0
20260505180914 58 176 14.0 19.0 0.00 0.00 0.00 86 1011.2
20260505180411 58 218 13.0 19.0 0.00 0.00 0.00 86 1011.1
20260505175908 58 180 16.0 21.0 0.00 0.00 0.00 87 1011.3
20260505175404 58 204 13.0 17.0 0.00 0.00 0.00 86 1011.2
20260505174900 58 210 10.0 17.0 0.00 0.00 0.00 87 1011.4
20260505174358 58 170 14.0 16.0 0.00 0.00 0.00 87 1011.4
20260505173854 58 193 12.0 16.0 0.00 0.00 0.00 87 1011.4
20260505173351 58 190 9.0 16.0 0.00 0.00 0.00 87 1011.4
20260505172848 58 179 13.0 18.0 0.00 0.00 0.00 87 1011.3
20260505172345 57 194 13.0 16.0 0.00 0.00 0.00 87 1011.4
20260505171845 57 191 15.0 18.0 0.00 0.00 0.00 87 1011.6
20260505171342 58 198 12.0 15.0 0.00 0.00 0.00 87 1011.5
20260505170838 58 181 11.0 17.0 0.00 0.00 0.00 87 1011.6
20260505170335 58 208 12.0 16.0 0.00 0.00 0.00 87 1011.5
20260505165831 57 178 9.0 15.0 0.00 0.00 0.00 87 1011.6
20260505165326 58 174 12.0 15.0 0.00 0.00 0.00 87 1011.5
20260505164822 57 188 8.0 16.0 0.00 0.00 0.00 88 1011.8
20260505164320 57 186 10.0 16.0 0.00 0.00 0.00 87 1011.9
20260505163818 57 180 8.0 13.0 0.00 0.00 0.00 88 1012.0
20260505163316 57 186 8.0 14.0 0.00 0.00 0.00 88 1011.8
20260505162814 57 212 10.0 13.0 0.00 0.00 0.00 88 1011.9
20260505162310 57 189 8.0 14.0 0.00 0.00 0.00 88 1011.9
20260505161807 57 195 9.0 13.0 0.00 0.00 0.00 88 1012.0
20260505161304 58 213 8.0 13.0 0.00 0.00 0.00 88 1012.3
20260505160802 57 205 7.0 10.0 0.00 0.00 0.00 88 1012.1
20260505160259 57 215 6.0 11.0 0.00 0.00 0.00 89 1012.4
20260505153238 57 202 7.0 9.0 0.00 0.00 0.00 90 1012.4
20260505152736 56 194 6.0 9.0 0.00 0.00 0.00 90 1012.5
20260505152232 56 202 6.0 8.0 0.00 0.00 0.00 90 1012.7
20260505151732 56 206 5.0 6.0 0.00 0.00 0.00 90 1012.7
20260505151230 56 205 5.0 7.0 0.00 0.00 0.00 91 1012.7
20260505150726 56 207 4.0 9.0 0.00 0.00 0.00 91 1012.6
20260505150223 56 195 5.0 8.0 0.00 0.00 0.00 91 1012.7
20260505140651 55 192 7.0 10.0 0.00 0.00 0.00 94 1012.7
20260505140148 54 202 8.0 11.0 0.00 0.00 0.00 94 1012.6